• In Hungary
  • List of Countries
  • For 7 days
  • Water Temperature
  • Satellite Maps
  • Weather Map
  • News
  • Weather Widgets
  • user-avatar
    Login

    Hourly Weather Ogarevka

    Today, 14 August, Tuesday

    Time Temperature Precipitation Wind Pressure Humidity
    00:00 +16°C° 0 mm 2 mps 737 mmHg 75%
    01:00 +16°C° 0 mm 2 mps 737 mmHg 77%
    02:00 +15°C° 0 mm 1 mps 737 mmHg 79%
    03:00 +15°C° 0 mm 2 mps 737 mmHg 80%
    04:00 +15°C° 0 mm 2 mps 738 mmHg 81%
    05:00 +15°C° 0 mm 2 mps 738 mmHg 83%
    06:00 +15°C° 0 mm 2 mps 738 mmHg 84%
    07:00 +16°C° 0 mm 2 mps 738 mmHg 80%
    08:00 +17°C° 0 mm 2 mps 739 mmHg 76%
    09:00 +19°C° 0 mm 2 mps 739 mmHg 70%
    10:00 +20°C° 0 mm 2 mps 739 mmHg 66%
    11:00 +21°C° 0 mm 3 mps 739 mmHg 62%
    12:00 +22°C° 0 mm 3 mps 739 mmHg 58%
    13:00 +22°C° 0 mm 3 mps 739 mmHg 57%
    14:00 +24°C° 0 mm 3 mps 739 mmHg 56%
    15:00 +25°C° 0 mm 3 mps 739 mmHg 55%
    16:00 +24°C° 0 mm 3 mps 739 mmHg 58%
    17:00 +24°C° 0 mm 2 mps 739 mmHg 61%
    18:00 +24°C° 0 mm 2 mps 739 mmHg 64%
    19:00 +23°C° 0 mm 2 mps 738 mmHg 67%
    20:00 +20°C° 0 mm 2 mps 738 mmHg 70%
    21:00 +18°C° 0 mm 2 mps 738 mmHg 74%
    22:00 +18°C° 0 mm 2 mps 738 mmHg 74%
    23:00 +18°C° 0 mm 2 mps 738 mmHg 73%

    Tomorrow, 15 August, Wednesday

    Time Temperature Precipitation Wind Pressure Humidity
    00:00 +17°C° 0 mm 2 mps 738 mmHg 73%
    01:00 +17°C° 0 mm 2 mps 738 mmHg 74%
    02:00 +17°C° 0 mm 3 mps 738 mmHg 75%
    03:00 +16°C° 0 mm 3 mps 738 mmHg 77%
    04:00 +16°C° 0 mm 3 mps 738 mmHg 80%
    05:00 +16°C° 0 mm 3 mps 738 mmHg 83%
    06:00 +16°C° 0 mm 2 mps 738 mmHg 86%
    07:00 +18°C° 0 mm 3 mps 738 mmHg 82%
    08:00 +20°C° 0 mm 3 mps 738 mmHg 79%
    09:00 +22°C° 0 mm 4 mps 738 mmHg 76%
    10:00 +25°C° 0.6 mm 4 mps 738 mmHg 69%
    11:00 +26°C° 0.6 mm 5 mps 737 mmHg 63%
    12:00 +28°C° 0.6 mm 6 mps 737 mmHg 56%
    13:00 +29°C° 0.2 mm 6 mps 737 mmHg 54%
    14:00 +29°C° 0.2 mm 6 mps 737 mmHg 52%
    15:00 +30°C° 0.2 mm 6 mps 737 mmHg 50%
    16:00 +29°C° 0 mm 5 mps 737 mmHg 54%
    17:00 +29°C° 0 mm 4 mps 736 mmHg 58%
    18:00 +28°C° 0 mm 4 mps 736 mmHg 62%
    19:00 +27°C° 0 mm 4 mps 736 mmHg 64%
    20:00 +25°C° 0 mm 4 mps 736 mmHg 67%
    21:00 +22°C° 0 mm 4 mps 736 mmHg 70%
    22:00 +22°C° 0.1 mm 4 mps 736 mmHg 72%
    23:00 +21°C° 0.1 mm 3 mps 736 mmHg 75%

    Day after tomorrow, 16 August, Thursday

    Time Temperature Precipitation Wind Pressure Humidity
    00:00 +20°C° 0.1 mm 3 mps 736 mmHg 77%
    01:00 +19°C° 0.1 mm 3 mps 737 mmHg 80%
    02:00 +19°C° 0.1 mm 2 mps 737 mmHg 82%
    03:00 +18°C° 0.1 mm 2 mps 737 mmHg 85%
    04:00 +18°C° 0.1 mm 2 mps 737 mmHg 86%
    05:00 +18°C° 0.1 mm 2 mps 737 mmHg 88%
    06:00 +18°C° 0.1 mm 2 mps 737 mmHg 89%
    07:00 +19°C° 0.2 mm 2 mps 737 mmHg 87%
    08:00 +20°C° 0.2 mm 2 mps 737 mmHg 86%
    09:00 +20°C° 0.2 mm 2 mps 738 mmHg 85%
    10:00 +21°C° 0.3 mm 2 mps 738 mmHg 80%
    11:00 +23°C° 0.3 mm 2 mps 738 mmHg 76%
    12:00 +25°C° 0.3 mm 2 mps 738 mmHg 71%
    13:00 +25°C° 1 mm 2 mps 738 mmHg 71%
    14:00 +25°C° 1 mm 2 mps 738 mmHg 71%
    15:00 +25°C° 1 mm 2 mps 738 mmHg 72%
    16:00 +25°C° 0.4 mm 2 mps 738 mmHg 72%
    17:00 +25°C° 0.4 mm 2 mps 738 mmHg 73%
    18:00 +25°C° 0.4 mm 2 mps 738 mmHg 74%
    19:00 +23°C° 0.1 mm 2 mps 738 mmHg 78%
    20:00 +21°C° 0.1 mm 2 mps 739 mmHg 82%
    21:00 +20°C° 0.1 mm 2 mps 739 mmHg 87%
    22:00 +19°C° 0 mm 2 mps 739 mmHg 88%
    23:00 +19°C° 0 mm 2 mps 739 mmHg 89%

    17 August, Friday

    Time Temperature Precipitation Wind Pressure Humidity
    00:00 +18°C° 0 mm 2 mps 739 mmHg 91%
    01:00 +18°C° 0.1 mm 2 mps 739 mmHg 92%
    02:00 +18°C° 0.1 mm 2 mps 740 mmHg 93%
    03:00 +17°C° 0.1 mm 3 mps 740 mmHg 95%
    04:00 +17°C° 0.1 mm 3 mps 740 mmHg 95%
    05:00 +16°C° 0.1 mm 3 mps 740 mmHg 96%
    06:00 +16°C° 0.1 mm 3 mps 741 mmHg 96%
    07:00 +17°C° 0 mm 4 mps 741 mmHg 92%
    08:00 +18°C° 0 mm 4 mps 741 mmHg 88%
    09:00 +19°C° 0 mm 4 mps 741 mmHg 83%
    10:00 +20°C° 0 mm 4 mps 741 mmHg 79%
    11:00 +22°C° 0 mm 4 mps 741 mmHg 74%
    12:00 +23°C° 0 mm 4 mps 741 mmHg 69%
    13:00 +23°C° 0.2 mm 4 mps 741 mmHg 67%
    14:00 +23°C° 0.2 mm 4 mps 741 mmHg 65%
    15:00 +25°C° 0.2 mm 4 mps 741 mmHg 63%
    16:00 +25°C° 0.1 mm 4 mps 741 mmHg 65%
    17:00 +24°C° 0.1 mm 3 mps 741 mmHg 67%
    18:00 +24°C° 0.1 mm 3 mps 741 mmHg 68%
    19:00 +21°C° 0 mm 3 mps 741 mmHg 71%
    20:00 +20°C° 0 mm 3 mps 741 mmHg 74%
    21:00 +18°C° 0 mm 3 mps 741 mmHg 77%
    22:00 +18°C° 0 mm 3 mps 741 mmHg 77%
    23:00 +17°C° 0 mm 3 mps 741 mmHg 78%

    18 August, Saturday

    Time Temperature Precipitation Wind Pressure Humidity
    00:00 +17°C° 0 mm 3 mps 741 mmHg 78%
    01:00 +16°C° 0 mm 3 mps 742 mmHg 80%
    02:00 +16°C° 0 mm 3 mps 742 mmHg 82%
    03:00 +14°C° 0 mm 3 mps 742 mmHg 83%
    04:00 +14°C° 0 mm 3 mps 742 mmHg 85%
    05:00 +14°C° 0 mm 3 mps 742 mmHg 87%
    06:00 +14°C° 0 mm 3 mps 742 mmHg 89%
    07:00 +16°C° 0 mm 3 mps 742 mmHg 84%
    08:00 +18°C° 0 mm 4 mps 743 mmHg 78%
    09:00 +20°C° 0 mm 4 mps 743 mmHg 73%
    10:00 +21°C° 0 mm 4 mps 743 mmHg 68%
    11:00 +22°C° 0 mm 4 mps 743 mmHg 62%
    12:00 +23°C° 0 mm 4 mps 743 mmHg 57%
    13:00 +23°C° 0 mm 4 mps 743 mmHg 56%
    14:00 +23°C° 0 mm 4 mps 742 mmHg 55%
    15:00 +25°C° 0 mm 4 mps 742 mmHg 53%
    16:00 +24°C° 0 mm 3 mps 742 mmHg 56%
    17:00 +24°C° 0 mm 3 mps 742 mmHg 60%
    18:00 +24°C° 0 mm 2 mps 742 mmHg 63%
    19:00 +21°C° 0 mm 3 mps 742 mmHg 66%
    20:00 +19°C° 0 mm 3 mps 742 mmHg 69%
    21:00 +18°C° 0 mm 3 mps 742 mmHg 72%
    22:00 +17°C° 0 mm 3 mps 742 mmHg 72%
    23:00 +17°C° 0 mm 3 mps 742 mmHg 72%

    19 August, Sunday

    Time Temperature Precipitation Wind Pressure Humidity
    00:00 +16°C° 0 mm 3 mps 742 mmHg 72%
    01:00 +16°C° 0 mm 3 mps 742 mmHg 72%
    02:00 +14°C° 0 mm 3 mps 742 mmHg 72%
    03:00 +14°C° 0 mm 3 mps 742 mmHg 73%
    04:00 +14°C° 0 mm 3 mps 742 mmHg 74%
    05:00 +14°C° 0 mm 3 mps 742 mmHg 75%
    06:00 +13°C° 0 mm 3 mps 742 mmHg 76%
    07:00 +15°C° 0 mm 4 mps 742 mmHg 73%
    08:00 +17°C° 0 mm 4 mps 742 mmHg 71%
    09:00 +19°C° 0 mm 4 mps 742 mmHg 68%
    10:00 +20°C° 0 mm 4 mps 742 mmHg 65%
    11:00 +21°C° 0 mm 5 mps 742 mmHg 62%
    12:00 +23°C° 0 mm 5 mps 741 mmHg 59%
    13:00 +23°C° 0 mm 5 mps 741 mmHg 58%
    14:00 +25°C° 0 mm 5 mps 741 mmHg 57%
    15:00 +25°C° 0 mm 5 mps 741 mmHg 56%
    16:00 +25°C° 0 mm 4 mps 740 mmHg 59%
    17:00 +25°C° 0 mm 4 mps 740 mmHg 62%
    18:00 +24°C° 0 mm 3 mps 740 mmHg 65%
    19:00 +22°C° 0 mm 3 mps 740 mmHg 67%
    20:00 +20°C° 0 mm 3 mps 740 mmHg 69%
    21:00 +19°C° 0 mm 3 mps 740 mmHg 71%
    22:00 +19°C° 0 mm 3 mps 740 mmHg 71%
    23:00 +18°C° 0 mm 3 mps 739 mmHg 72%
    Show more